ONEWEB-0060, 45455

Orbit data source: Space-Track

ONEWEB-0060, 45455 is a payload satellite owned by One Web (UK) in LEO that was launched on Sat, 21 Mar 2020 UTC via a SOYUZ-2-1B launch vehicle from the Tyuratam Missile And Space Complex (TTMTR). Payloads include a variety of satellites, spacecraft, and rockets equipped with specific instruments for various scientific and technological missions. These include communications satellites like Starlink; space stations such as the ISS; scientific satellites like the Hubble; Earth observation satellites from companies like Planet Labs, Umbra, and HawkEye 360; GPS; miniature CubeSats for education and research; and military/defense satellites.

Loading next visibility...
ONEWEB-0060 details
Identifier
45455, 2020-020AH
Orbit
LEO
Last TLE update16 hours ago
Origin
Flag of UKOne Web (UK)
ManufacturerOne Web
MissionOperational Commercial Communications
Bus & MotorARROW, Unknown motor
Mass148 kg wet, ~140 kg dry
Launch date (UTC)
2020-03-21 (5 years ago)
Launch vehicle
SOYUZ-2-1B
Launch site
Tyuratam Missile And Space Complex (TTMTR)
Object type
Payload
Rocket body
Debris
Shape & HBRTrap Box + 2 Pan, 5 m
Radar Cross Section2.957 m², Large (>1 m²)

Expand to show TLE details & history

TLE from 16 hours ago
0 ONEWEB-0060
1 45455U 20020AH  24355.85957697 -.00000373  00000-0 -10884-2 0  9990
2 45455  87.8901 129.3438 0001669 100.6531 259.4785 13.11414837231342
Epoch: 2024-12-20T20:37Z
Definitive object data (Epoch: 2024-12-20T20:37:47.45Z)
Latitude-0°
Longitude89.97705°
Altitude1,220.812 km
Speed7.244 km/s
True Right ascension08h 37m 22s
True Declination0° 00' 00"
Sunlit
Object was in full shadow at TLE epoch
Visualization TLE readout
Latitude-28.4733°
Longitude-89.01388°
Altitude1,228.735 km
Speed7.239 km/s
Apparent Right ascension21h 48m 46s
Apparent Declination-35° 09' 32"
Sunlit
Object is in daylight
Visualization observer readout
Local Sidereal Time11:22:01
Azimuth82.933° E
Elevation-70.973°
Doppler factor1
Orbital elements
Apogee altitude1,216.076 km
Perigee altitude1,213.542 km
Semi-major axis7,592.946 km
Eccentricity0.0001669
Inclination87.8901°
RAAN129.3438°
Arg. of periapsis100.6531°
True anomaly259.4597°
Mean anomaly259.4785°
Eccentric anomaly259.4691°
Mean motion3.28041 °/min
BSTAR-0.0010884
Orbital period109.74 mins
Loading maneuver chart data...
Loading historical data...
Loading historical data...
Loading historical data...
Loading historical data...
Loading historical data...
Loading historical data...
Loading historical data...

ONEWEB-0060 Visibility forecast

Observer location: undefined°, undefined

Span
Click to sort rows by Start time (UTC) header in descending order
Start Az.
Max El. time (UTC)
Max El. Az.
Max El.
End time (UTC)
End Az.
12 mins2024-12-21 21:03:14.546Z7.032° NNE2024-12-21 21:09:14.546Z113.386° SE42.774°2024-12-21 21:15:14.546Z170.105° S
8 mins2024-12-21 22:54:14.546Z320.416° NNW2024-12-21 22:58:14.546Z281.699° WNW19.369°2024-12-21 23:02:14.546Z245.756° WSW
13 mins2024-12-22 09:21:14.546Z171.224° S2024-12-22 09:27:14.546Z94.327° ESE44.295°2024-12-22 09:34:14.546Z3.838° NNE
8 mins2024-12-22 11:14:14.546Z252.205° W2024-12-22 11:18:14.546Z288.908° WNW17.363°2024-12-22 11:22:14.546Z324.055° NNW
|